Temperature
21 20 20 20 20 19 19 19 19 19 18 18 18 18 18 18 18 18 17 17 17 17 17 17 17 17 17 17 17 17 17 17 17 17 17 17 17 17 16 16 16 16 16
21 20 20 20 20 19 19 19 19 19 18 18 18 18 18 18 18 18 17 17 17 17 17 17 17 17 17 17 17 17 17 17 17 17 17 17 17 16 16 16 16 16 16
21 20 20 20 19 19 19 19 19 18 18 18 18 18 18 18 18 18 17 17 17 17 17 17 17 17 17 17 17 17 17 17 17 17 17 17 16 16 16 16 16 16 16
21 20 20 19 19 19 19 19 18 18 18 18 18 18 18 18 18 18 18 17 17 17 17 17 17 17 17 17 17 17 17 17 16 16 16 16 16 16 16 16 16 16 15
20 20 20 19 19 19 19 18 18 18 18 18 18 18 18 18 18 18 18 17 17 17 17 17 17 17 17 17 16 16 16 16 16 16 16 16 16 16 16 15 15 15 15
20 20 19 19 19 19 19 19 18 18 18 18 18 18 18 17 18 17 17 17 17 17 17 17 17 17 17 17 17 16 16 16 16 16 16 16 16 15 15 15 15 15 15
20 20 19 19 19 19 19 18 18 18 18 18 18 17 17 18 18 17 17 17 17 17 16 16 16 16 16 16 16 16 16 16 16 16 15 15 15 15 15 15 15 15 15
20 20 19 19 19 19 18 18 18 18 18 18 18 17 17 18 18 18 17 17 16 16 16 16 16 16 16 16 16 16 16 16 16 16 15 15 15 15 15 15 14 14 14
20 19 19 19 19 18 18 18 18 18 18 18 17 17 17 18 18 17 17 17 16 16 16 16 16 16 16 16 16 16 16 16 16 15 15 15 15 15 15 15 14 14 14
19 19 19 19 18 18 18 18 18 18 17 17 17 17 17 17 18 17 17 17 16 16 16 16 16 16 16 16 16 15 15 15 15 15 15 15 15 15 14 14 14 14 14
19 19 19 18 18 18 18 18 18 17 17 17 17 17 17 17 17 17 17 17 16 16 16 15 15 15 15 15 15 15 15 15 15 15 15 14 14 14 14 14 14 14 13
19 19 18 18 18 18 18 18 17 17 17 17 17 17 17 17 17 17 17 17 16 16 16 15 15 15 15 15 15 15 15 14 14 14 14 14 14 14 14 14 14 13 13
18 18 18 18 18 18 18 17 17 17 17 17 17 16 16 16 16 17 17 16 16 16 15 15 15 15 15 15 15 15 14 14 14 14 14 14 14 13 13 13 13 13 13
18 18 18 18 17 17 17 17 17 17 17 17 17 16 16 16 16 16 16 16 16 15 15 15 15 15 15 15 14 14 14 14 14 14 13 13 13 13 13 13 13 13 13
17 17 17 17 17 17 17 17 17 17 17 17 17 17 16 16 16 16 16 16 16 16 15 15 15 15 15 14 14 14 14 14 13 13 13 13 13 13 13 13 13 13 13
17 17 17 17 17 17 17 17 17 17 17 17 17 16 16 16 16 16 16 16 16 15 15 15 14 14 14 14 14 14 14 14 13 13 13 13 13 13 13 13 13 13 13
16 16 16 17 17 17 17 17 17 17 17 17 16 16 16 16 16 16 16 15 15 15 15 14 14 14 14 14 14 14 13 13 13 13 13 13 13 13 13 13 12 13 13
16 16 16 16 16 16 17 17 17 17 17 17 16 16 16 16 16 15 15 15 15 14 14 14 14 14 14 14 14 13 13 13 13 13 13 13 12 12 12 12 12 12 12
15 15 16 16 16 16 16 16 16 16 16 16 16 16 16 15 15 15 15 15 14 14 14 14 14 14 13 13 13 13 13 13 13 12 12 12 12 12 12 12 12 12 12
15 15 15 15 16 16 16 16 16 16 16 16 16 16 16 15 15 15 15 15 14 14 14 14 13 13 13 13 13 13 13 12 12 12 12 12 12 12 12 12 12 12 12
14 15 15 15 15 16 16 16 16 16 16 16 16 15 15 15 15 15 15 14 14 14 13 13 13 13 13 13 13 13 12 12 12 12 12 12 12 12 12 12 12 12 12
14 14 15 15 15 15 15 16 16 15 15 15 15 15 15 15 15 15 14 14 14 14 13 13 13 13 13 13 12 12 12 12 12 12 12 12 12 11 11 11 11 11 11
14 14 15 15 15 15 15 15 15 15 15 15 15 15 15 14 14 14 14 14 14 13 13 13 13 12 12 12 12 12 12 12 12 12 11 11 11 11 11 11 11 11 11
14 14 14 14 15 15 15 15 15 15 15 15 15 14 14 14 14 14 13 13 13 13 13 12 12 12 12 12 12 12 12 11 11 11 11 11 10 10 10 10 10 10 10
13 14 14 14 14 14 14 14 14 15 14 14 14 14 14 13 13 13 13 13 13 12 12 12 12 12 12 12 11 11 11 11 11 11 10 10 10 10 10 10 10 10 10
13 13 13 14 14 14 14 14 14 14 14 14 14 13 13 13 13 12 12 12 12 12 11 11 11 11 11 11 11 11 11 11 11 10 10 10 10 10 9 9 9 9 10
Wind_Speed
11 9 9 9 8 7 6 5 6 5 5 5 6 6 5 5 4 4 4 3 4 3 3 2 2 2 2 3 2 2 2 2 2 2 1 1 2 2 2 4 6 7 9
9 8 8 8 8 9 8 6 5 6 6 5 5 5 5 5 5 4 5 4 4 4 4 3 3 3 2 3 3 3 2 2 2 3 2 1 3 3 3 4 5 6 6
9 9 8 8 8 8 7 7 6 6 6 6 5 5 5 5 5 5 5 4 4 4 4 3 3 3 3 2 3 3 3 3 2 2 3 2 2 2 2 3 4 2 4
8 8 8 8 7 7 5 6 6 6 6 6 5 5 5 5 5 5 5 5 5 4 3 3 3 3 3 3 3 3 3 3 3 3 3 2 1 2 1 2 3 2 2
7 7 7 7 7 6 6 5 6 6 7 6 5 5 5 5 5 5 5 6 5 5 4 4 4 3 3 3 3 2 3 3 3 3 3 2 2 1 2 2 3 2 2
6 7 6 6 6 6 6 6 6 6 6 5 6 5 6 6 5 6 5 5 5 5 5 4 4 4 4 5 4 4 4 4 4 3 3 3 2 2 2 3 3 2 3
6 6 6 6 6 6 7 7 6 6 6 5 6 6 6 5 5 5 5 5 5 5 5 4 5 4 3 2 4 5 6 7 7 5 5 5 4 2 2 3 3 3 4
7 6 6 6 6 6 6 6 6 6 6 6 6 6 6 6 6 6 6 5 5 5 4 4 4 2 3 3 4 4 5 4 5 5 4 5 4 3 3 4 4 4 4
6 6 6 6 6 6 6 6 5 5 6 6 6 6 6 5 7 7 7 5 5 5 5 5 4 3 4 3 3 4 5 4 4 4 5 5 6 6 4 3 3 3 4
5 5 6 6 6 6 6 5 5 5 6 6 6 6 6 6 8 9 8 5 5 4 4 5 5 5 4 4 3 4 5 4 3 4 4 6 6 6 7 5 4 3 4
4 4 5 5 6 6 5 5 5 5 6 6 6 6 6 7 8 10 11 6 5 4 4 4 3 6 6 5 5 4 5 5 4 4 4 4 3 3 4 5 4 3 4
2 4 4 4 5 6 5 5 5 6 6 7 6 6 6 6 7 9 11 10 6 4 4 3 2 4 5 6 5 5 5 5 4 3 4 3 3 4 3 3 4 5 5
1 2 3 4 3 3 4 5 6 6 6 6 6 6 5 5 5 8 10 10 9 5 3 3 3 5 4 4 6 6 4 4 4 4 4 4 3 3 2 2 3 4 5
1 2 3 4 4 3 4 5 5 5 6 5 5 5 4 4 4 4 5 6 7 6 4 3 5 6 6 5 4 4 4 5 5 4 4 3 2 2 2 2 3 3 3
2 2 4 4 4 4 5 4 5 4 5 5 5 4 4 4 4 6 6 5 5 4 3 3 3 3 3 4 4 4 5 5 5 5 4 3 3 3 3 3 3 3 3
3 4 4 4 4 4 5 5 5 6 7 6 5 4 3 4 6 7 7 5 4 5 3 4 4 4 5 4 4 4 5 5 5 5 5 4 4 4 4 3 3 3 4
5 5 4 4 4 4 5 5 5 5 5 6 7 6 6 5 6 6 6 5 4 6 4 5 5 5 4 3 4 4 4 4 4 4 4 4 4 4 3 3 3 3 3
7 6 5 5 4 4 5 5 5 6 5 5 6 9 9 8 7 7 6 5 3 5 6 6 5 4 4 3 3 3 3 2 3 3 3 4 4 3 3 3 3 3 3
7 6 5 5 5 5 5 5 6 6 5 5 4 5 8 7 6 7 8 6 7 6 6 6 5 4 4 3 3 3 3 2 2 2 2 2 2 2 3 3 3 4 4
6 8 7 6 6 5 5 6 5 5 5 5 5 5 5 5 4 5 6 7 7 7 6 6 5 4 4 3 3 3 3 3 3 3 2 2 2 3 3 3 3 3 3
6 6 8 8 7 6 5 5 4 4 4 5 5 5 8 6 7 7 7 8 8 7 6 5 4 3 3 3 3 3 3 3 2 2 2 2 2 2 2 2 2 2 2
7 6 6 7 6 5 5 5 5 5 6 6 4 5 9 7 6 6 6 6 7 6 6 5 5 4 3 3 3 2 2 2 1 1 1 1 1 1 2 2 2 2 2
7 7 7 6 6 5 6 6 6 6 5 4 4 4 6 6 5 5 4 4 5 5 4 4 4 3 2 1 1 1 1 1 1 0 0 1 1 1 1 2 3 3 2
7 7 7 6 5 5 6 5 6 6 5 4 4 4 4 4 4 4 3 2 2 2 2 2 2 2 2 1 1 1 0 0 1 1 0 1 2 2 2 2 3 3 3
7 6 6 4 4 5 5 5 4 4 4 4 3 3 4 4 4 3 2 2 2 2 2 2 2 2 2 3 2 3 4 3 2 1 1 2 2 2 2 3 3 3 3
7 6 5 5 5 5 4 4 4 4 3 3 3 3 3 3 3 2 2 2 3 3 3 2 3 3 3 3 4 5 5 4 3 2 2 2 2 2 2 3 3 3 3
Wind_Direction
181 180 182 183 191 190 192 193 189 187 178 176 175 175 178 180 190 205 222 203 212 228 241 228 233 265 306 308 302 292 286 278 272 285 282 210 217 237 193 216 209 204 204
175 176 183 184 186 189 193 196 191 184 182 182 184 183 190 190 196 204 223 222 216 220 232 242 246 248 256 287 304 302 291 279 264 279 286 261 240 220 203 231 228 222 200
173 179 183 186 189 191 192 188 189 189 184 186 188 193 200 195 199 208 218 227 230 227 225 234 244 254 264 267 278 287 290 286 256 257 265 254 248 246 220 251 259 248 226
172 178 182 187 185 188 187 186 188 188 185 188 196 200 202 198 202 207 217 218 223 228 226 228 232 233 245 263 263 274 283 287 278 270 267 267 262 260 240 256 262 257 249
169 177 179 182 179 181 178 185 186 193 194 189 194 204 211 205 211 209 222 221 216 225 228 227 225 214 221 244 265 285 289 286 282 276 270 267 268 292 278 275 278 264 247
168 175 172 175 176 176 176 180 188 193 192 190 196 202 216 219 206 202 218 229 217 219 229 234 224 213 219 220 243 261 262 267 279 281 277 278 273 276 279 285 284 296 284
172 175 171 175 177 178 185 180 184 191 191 197 201 204 204 206 207 200 216 232 234 231 230 233 247 231 201 222 242 247 250 242 238 256 273 282 286 299 301 291 291 288 270
174 177 174 177 182 181 183 184 185 188 193 201 208 207 198 205 207 203 213 225 237 238 231 231 239 246 246 246 251 250 244 238 236 237 259 274 280 286 279 268 269 270 265
183 185 182 184 185 185 191 191 192 193 199 203 203 207 205 200 202 202 201 219 229 233 230 230 224 225 234 239 257 260 257 255 248 244 243 251 259 264 257 277 280 282 283
190 190 186 188 190 189 195 195 199 203 207 206 208 211 209 205 200 197 196 218 233 235 231 225 223 218 218 218 237 256 259 265 263 257 255 255 249 245 232 226 243 257 273
191 189 191 195 197 190 193 200 203 210 210 214 215 213 209 206 197 196 196 214 233 241 242 237 219 194 202 221 230 250 257 269 273 259 255 249 235 235 224 216 221 230 248
198 189 191 203 216 197 192 202 207 212 218 219 216 219 216 201 194 202 202 214 233 243 258 261 208 180 201 223 231 248 260 272 265 258 259 257 246 240 232 217 216 224 231
220 205 207 211 210 195 201 204 210 212 219 224 219 218 219 205 191 193 199 211 224 235 259 267 227 212 214 222 237 245 249 250 253 255 253 252 251 247 230 218 218 222 236
249 224 221 215 216 198 211 215 220 220 221 223 225 224 221 204 185 182 201 214 223 234 256 255 221 219 229 240 238 234 234 237 237 249 255 252 246 231 233 230 234 226 235
253 244 242 233 217 206 212 221 218 220 216 219 228 224 221 219 205 185 190 201 209 213 219 222 228 223 225 229 228 226 230 229 234 239 249 252 246 240 237 233 238 241 249
249 246 249 245 228 221 217 224 226 221 208 203 205 212 208 200 180 175 178 178 183 174 189 226 234 235 234 232 233 230 228 227 231 235 238 237 239 238 242 238 232 237 244
265 257 256 259 250 237 227 225 229 223 213 206 201 203 207 201 186 180 180 180 182 169 203 233 240 240 238 232 241 246 236 225 224 233 235 234 233 241 246 244 239 244 246
264 261 254 254 257 255 252 246 240 230 219 217 210 204 200 201 198 189 170 156 202 204 223 236 238 234 231 234 245 253 253 234 227 237 241 241 235 234 244 241 234 242 247
260 262 259 258 255 252 256 258 254 240 229 214 194 193 197 193 194 191 177 203 222 224 227 232 235 230 227 229 236 247 244 237 236 239 249 252 249 248 252 254 236 233 243
252 257 257 261 260 254 247 247 247 244 235 222 212 202 173 175 197 197 204 218 229 235 239 238 234 229 223 231 239 239 237 228 224 231 242 242 247 258 258 259 255 242 237
253 252 248 256 254 252 252 249 251 253 249 238 232 200 182 202 210 206 209 215 222 232 237 240 234 230 230 230 237 232 233 232 219 219 221 229 241 251 261 269 268 263 264
261 252 243 246 251 250 253 254 252 250 247 240 231 202 190 211 220 219 220 214 219 223 227 230 234 232 230 227 227 226 237 244 249 254 248 252 243 247 251 256 266 266 253
266 262 251 244 246 249 251 252 252 250 244 236 227 204 203 223 232 226 228 228 221 218 217 220 223 217 228 224 186 181 223 241 235 150 308 300 300 297 286 274 267 275 272
273 272 269 262 252 252 257 260 259 259 252 238 231 216 215 225 237 236 235 237 235 231 215 205 211 211 201 180 170 158 176 164 135 119 206 261 272 280 286 288 285 282 285
276 276 274 266 260 255 254 258 259 262 263 259 244 231 233 230 236 237 231 231 228 227 219 206 207 210 209 195 168 140 127 114 116 150 251 251 255 261 272 272 270 275 278
275 271 265 262 256 256 257 259 260 261 257 257 245 226 229 232 230 225 218 221 222 218 211 201 199 193 184 188 152 142 140 142 155 183 227 246 257 264 278 276 272 266 264
Height
1512 1513 1516 1518 1520 1523 1525 1526 1528 1529 1530 1532 1533 1534 1535 1535 1536 1537 1538 1539 1540 1540 1541 1541 1541 1542 1542 1543 1543 1543 1543 1543 1543 1542 1542 1541 1540 1540 1538 1538 1537 1536 1536
1508 1511 1513 1516 1518 1520 1522 1523 1525 1527 1528 1529 1531 1532 1532 1533 1534 1535 1536 1537 1538 1538 1539 1539 1539 1540 1540 1540 1540 1541 1541 1541 1540 1540 1539 1539 1538 1537 1536 1536 1535 1534 1534
1506 1508 1510 1513 1515 1517 1519 1521 1522 1524 1525 1527 1528 1529 1530 1531 1532 1533 1534 1535 1536 1536 1537 1537 1537 1537 1537 1537 1537 1538 1538 1538 1538 1537 1536 1536 1536 1535 1534 1534 1533 1533 1532
1504 1506 1508 1510 1512 1514 1516 1518 1520 1521 1522 1524 1525 1527 1528 1529 1529 1530 1531 1532 1533 1534 1534 1534 1534 1534 1534 1534 1535 1535 1535 1535 1535 1535 1534 1534 1533 1533 1532 1531 1531 1530 1530
1502 1504 1506 1508 1510 1512 1513 1515 1516 1518 1519 1520 1522 1523 1525 1526 1527 1527 1528 1529 1530 1531 1531 1531 1531 1531 1531 1531 1531 1531 1532 1532 1532 1532 1531 1531 1530 1530 1529 1529 1528 1527 1527
1500 1502 1504 1505 1507 1509 1510 1512 1513 1515 1516 1517 1519 1520 1522 1523 1523 1524 1525 1526 1527 1527 1528 1528 1528 1528 1528 1528 1528 1528 1529 1529 1528 1528 1528 1528 1527 1527 1526 1526 1525 1525 1524
1498 1500 1501 1503 1504 1506 1507 1509 1510 1512 1513 1515 1516 1517 1518 1519 1521 1521 1522 1523 1523 1524 1524 1524 1525 1524 1524 1524 1524 1524 1524 1525 1525 1525 1524 1524 1524 1524 1523 1523 1522 1521 1521
1496 1498 1499 1500 1502 1503 1505 1506 1507 1509 1510 1512 1513 1514 1515 1516 1517 1518 1518 1519 1520 1520 1520 1521 1521 1520 1520 1520 1520 1520 1520 1520 1521 1520 1520 1520 1520 1520 1520 1519 1518 1518 1517
1493 1495 1497 1498 1499 1500 1502 1503 1504 1506 1507 1508 1510 1511 1512 1512 1513 1514 1515 1515 1516 1516 1517 1517 1517 1516 1516 1517 1517 1516 1516 1516 1516 1516 1516 1516 1516 1516 1516 1516 1515 1515 1513
1491 1493 1494 1496 1496 1497 1499 1500 1502 1503 1504 1505 1506 1507 1508 1509 1510 1511 1511 1512 1512 1512 1513 1513 1513 1513 1513 1513 1513 1512 1512 1512 1512 1512 1512 1511 1511 1511 1511 1511 1511 1511 1510
1489 1490 1491 1493 1493 1494 1496 1497 1499 1500 1502 1503 1503 1504 1505 1505 1506 1507 1507 1508 1508 1508 1509 1509 1509 1509 1509 1509 1509 1509 1508 1508 1508 1507 1507 1507 1507 1507 1507 1507 1507 1507 1507
1487 1488 1489 1490 1491 1492 1493 1494 1496 1497 1498 1499 1500 1500 1501 1501 1502 1502 1503 1504 1504 1505 1505 1505 1505 1505 1505 1505 1505 1505 1504 1504 1504 1503 1503 1503 1503 1503 1503 1503 1503 1503 1503
1484 1485 1487 1488 1488 1489 1490 1491 1492 1494 1495 1495 1496 1497 1497 1497 1497 1498 1499 1500 1501 1501 1502 1502 1502 1502 1501 1501 1501 1501 1500 1500 1499 1499 1499 1499 1499 1499 1500 1500 1499 1499 1499
1482 1482 1484 1485 1485 1486 1486 1488 1489 1489 1490 1491 1492 1492 1493 1493 1493 1493 1494 1495 1496 1497 1498 1498 1499 1498 1498 1497 1497 1496 1496 1496 1496 1496 1496 1496 1496 1496 1496 1496 1496 1495 1495
1479 1480 1481 1482 1482 1482 1483 1483 1484 1485 1486 1487 1487 1488 1488 1489 1489 1489 1490 1491 1492 1493 1494 1494 1494 1494 1494 1493 1493 1493 1492 1492 1492 1492 1492 1492 1492 1492 1492 1493 1492 1492 1492
1476 1476 1477 1478 1478 1478 1479 1480 1480 1481 1482 1483 1483 1484 1484 1485 1486 1486 1487 1488 1489 1490 1490 1490 1490 1490 1490 1490 1489 1489 1489 1489 1489 1489 1489 1489 1489 1489 1489 1489 1489 1489 1488
1473 1473 1474 1474 1475 1475 1475 1475 1476 1477 1477 1478 1479 1480 1481 1481 1482 1483 1483 1484 1485 1486 1486 1486 1486 1486 1486 1486 1486 1486 1485 1485 1485 1485 1485 1485 1485 1486 1486 1485 1486 1486 1485
1469 1470 1470 1470 1470 1471 1471 1471 1472 1472 1472 1472 1473 1474 1476 1477 1478 1478 1479 1480 1480 1481 1481 1481 1481 1482 1482 1482 1482 1482 1482 1481 1481 1481 1481 1482 1482 1482 1483 1483 1483 1483 1482
1466 1466 1466 1466 1466 1466 1466 1467 1468 1467 1468 1468 1469 1469 1470 1471 1472 1473 1474 1474 1475 1475 1476 1477 1478 1478 1478 1478 1478 1478 1478 1478 1478 1478 1478 1478 1478 1479 1479 1480 1480 1480 1480
1461 1462 1462 1462 1462 1462 1462 1463 1464 1464 1464 1465 1464 1465 1465 1466 1466 1467 1468 1469 1469 1470 1471 1472 1472 1473 1473 1473 1473 1474 1474 1474 1474 1474 1474 1475 1475 1476 1476 1476 1477 1477 1476
1457 1457 1458 1458 1458 1459 1459 1459 1459 1460 1460 1460 1461 1460 1460 1461 1462 1463 1463 1464 1464 1465 1466 1467 1467 1468 1469 1469 1469 1469 1470 1470 1470 1470 1470 1471 1472 1472 1473 1473 1473 1473 1473
1453 1453 1453 1453 1454 1454 1455 1455 1455 1455 1456 1456 1456 1457 1456 1457 1457 1458 1459 1459 1459 1460 1461 1462 1462 1463 1464 1464 1465 1465 1466 1466 1467 1466 1467 1467 1468 1468 1469 1469 1469 1470 1470
1449 1449 1449 1449 1450 1450 1450 1451 1451 1451 1451 1451 1451 1452 1452 1453 1453 1453 1454 1455 1455 1455 1456 1457 1457 1458 1459 1460 1460 1461 1461 1462 1462 1463 1463 1464 1464 1465 1465 1466 1466 1466 1467
1445 1444 1444 1444 1445 1446 1446 1446 1446 1446 1446 1447 1447 1447 1448 1449 1449 1449 1449 1450 1451 1451 1452 1452 1452 1453 1454 1455 1456 1456 1457 1458 1458 1459 1460 1460 1461 1461 1462 1462 1463 1463 1463
1441 1440 1440 1441 1441 1441 1441 1441 1442 1442 1442 1442 1443 1443 1444 1444 1445 1445 1445 1445 1446 1447 1447 1448 1448 1449 1450 1451 1452 1452 1452 1453 1454 1455 1456 1457 1457 1458 1458 1459 1459 1460 1459
1437 1437 1437 1437 1437 1437 1437 1437 1438 1438 1438 1438 1438 1439 1439 1440 1440 1441 1441 1442 1442 1443 1443 1443 1444 1445 1446 1447 1447 1448 1449 1449 1451 1452 1453 1453 1453 1454 1455 1455 1456 1456 1456